Regional Weather Roundup
Issued by NWS Jackson, KY

Home | Current Version | Previous Version | Graphics & Text | Print | Product List | Glossary On
Versions: 1 2 3 4 5 6 7 8 9 10 11 12 13 14 15 16 17 18 19 20 21 22 23 24 25 26 27 28 29 30 31 32 33 34 35 36 37 38 39 40 41 42 43 44 45 46 47 48 49 50
000
ASUS43 KJKL 291610
RWRJKL

EAST KENTUCKY HOURLY WEATHER ROUNDUP
NATIONAL WEATHER SERVICE JACKSON KY
1200 PM EDT FRI AUG 29 2014

NOTE: "FAIR" INDICATES FEW OR NO CLOUDS BELOW 12,000 FEET WITH
NO SIGNIFICANT WEATHER AND/OR OBSTRUCTIONS TO VISIBILITY.

* THESE REPORTS ARE NOT UNDER NWS QUALITY CONTROL AND MAY NOT
  REPORT WEATHER SUCH AS PRECIPITATION AND FOG.

KYZ079-080-083-085-087-088-110-112-115-119-120-291700
...EASTERN KENTUCKY...

CITY           SKY/WX    TMP DP  RH WIND       PRES   REMARKS
JACKSON        SUNNY     82  70  66 CALM      30.12F
LONDON         MOSUNNY   84  70  62 VRB5      30.12S
SOMERSET*      SUNNY     82  68  61 CALM      30.10F
MONTICELLO*    SUNNY     88  71  56 VRB6      30.10F HX  93
WILLIAMSBURG*  MOSUNNY   82  73  74 CALM      30.11F
MIDDLESBORO*   SUNNY     84  70  63 S5        30.12F
HARLAN APT*    SUNNY     82  68  61 MISG      30.14F
HAZARD APT*    SUNNY     82  70  65 S3        30.12S
BLACK MTN*       N/A     75  66  73 CALM        N/A
PIKEVILLE APT* SUNNY     79  70  73 CALM      30.14R
BIG SANDY*     SUNNY     81  70  69 CALM      30.12F
MOREHEAD APT*  SUNNY     81  66  61 SE7       30.13S
$$

KYZ035-036-041-042-044-050-067-078-099-291700
...CENTRAL KENTUCKY...

CITY           SKY/WX    TMP DP  RH WIND       PRES   REMARKS
MT STERLING*   SUNNY     81  68  65 S7        30.12S
FLEMING/MASON* SUNNY     81  66  61 E6        30.12S
DANVILLE*      SUNNY     86  72  62 S6        30.10S HX  92
RICHMOND*      MOSUNNY   84  70  61 SW3       30.09F
LEXINGTON      MOSUNNY   85  71  63 S7        30.09F HX  90
FRANKFORT      MOSUNNY   82  70  66 E5        30.07F
$$

KYZ091>093-OHZ055-061-077-WVZ005-015-034-035-042-291700
...SOUTHERN OHIO/WEST VIRGINIA...

CITY           SKY/WX    TMP DP  RH WIND       PRES   REMARKS
COVINGTON      MOSUNNY   82  63  52 SE8       30.09F
COLUMBUS       MOSUNNY   77  55  46 SE7       30.14S
DAYTON         MOSUNNY   77  61  57 SE8       30.13F
WILMINGTON     SUNNY     76  62  62 SE8       30.13S
HUNTINGTON     SUNNY     79  66  64 VRB3      30.11S
CHARLESTON     MOSUNNY   79  66  64 VRB5      30.12S
PINEVILLE*     SUNNY     82  69  65 MISG      30.21S
BECKLEY        SUNNY     74  61  63 SE13      30.21S
BLUEFIELD      SUNNY     74  61  63 S8        30.24S
$$

VAZ002-007-008-TNZ017-027-036-066-071-291700
...SOUTHWEST VIRGINIA/EAST TENNESSEE...

CITY           SKY/WX    TMP DP  RH WIND       PRES   REMARKS
WISE*          SUNNY     81  63  54 S7        30.21S
JONESVILLE*      N/A     82  68  61 CALM      30.15F
ABINGDON*      SUNNY     82  69  64 E6        30.18S
BRISTOL        MOSUNNY   83  67  58 NE3       30.14S
KNOXVILLE      MOSUNNY   85  69  58 VRB3      30.09F
OAK RIDGE      SUNNY     85  70  60 VRB5      30.11F
CROSSVILLE     SUNNY     83  62  49 VRB5      30.15S
NASHVILLE      MOSUNNY   90  62  39 S13       30.05S HX  90
$$

...KEY TO REMARKS...
VSB - VISIBILITY IN MILES
WCI - WIND CHILL INDEX
HX  - HEAT INDEX

$$



USA.gov is the U.S. government's official web portal to all federal, state and local government web resources and services.